TIANTONG-1 1

Last updated on Mon Jun 22 2026 00:03:05 GMT+0000 (Coordinated Universal Time)

1 41725U 16048A 26172.55273683 -.00000320 00000+0 00000+0 0 9999 2 41725 3.8584 43.4650 0005692 45.4292 121.2573 1.00273084 36318
UTC large
Height (km)
Speed (km/s)
/
Latitude / Longitude
Inclination (degrees)
Orbital Period (minutes)
Azimuth
Elevation
Range (km)
Doppler Factor

Next 0 passes for location: London (51.5072 / 0.1276)

No passes found over London.
TIANTONG-1 1